Regional Weather Roundup
Issued by NWS Goodland, KS

Home | Current Version | Previous Version | Text Only | Print | Product List | Glossary On
Versions: 1 2 3 4 5 6 7 8 9 10 11 12 13 14 15 16 17 18 19 20 21 22 23 24 25 26 27 28 29 30 31 32 33 34 35 36 37 38 39 40 41 42 43 44 45 46 47 48 49 50
000
ASUS43 KGLD 010359
RWRGLD

GOODLAND FORECAST AREA HOURLY WEATHER ROUNDUP
NATIONAL WEATHER SERVICE GOODLAND KS
1000 PM MDT MON AUG 31 2015

...OFFICIAL OBSERVATIONS...

CITY           SKY/WX    TMP DP  RH WIND       PRES   REMARKS
GOODLAND KS    MOCLDY    78  55  44 W18G25    30.01R
HILL CITY KS   CLEAR     80  52  37 S13       29.91R
IMPERIAL NEB   MOCLDY    78  60  53 N18       29.95R
MCCOOK NEB     CLEAR     78  55  44 E3        29.89S
AKRON CO       CLOUDY    64  60  87 CALM      30.12S
BURLINGTON CO  CLOUDY    66  59  78 NW21G31   30.09R
LIMON CO       CLOUDY    59  57  93 CALM      30.15F
$$

...UNOFFICIAL OBSERVATIONS...

CITY           SKY/WX    TMP DP  RH WIND       PRES   REMARKS
COLBY KS       CLEAR     79  55  44 SE14G20   29.96R
GOVE KS          N/A     75  32  20 MISG        N/A
LENORA KS        N/A     76  32  20 MISG        N/A
NORTON KS      CLEAR     79  46  31 S6        29.89S
SHARON SPRINGS   N/A     75  54  47 S10         N/A
TRENTON NEB      N/A     78  32  18 S9          N/A
KIT CARSON CO    N/A     64  61  89 MISG        N/A
YUMA CO          N/A     65  60  85 NW12G18     N/A
$$


USA.gov is the U.S. government's official web portal to all federal, state and local government web resources and services.